Regional Weather Roundup
Issued by NWS

Home | Current Version | Previous Version | Graphics & Text | Print | Product List | Glossary On
Versions: 1 2 3 4 5 6 7 8 9 10 11 12 13 14 15 16 17 18 19 20 21 22 23 24 25 26 27 28 29 30 31 32 33 34 35 36 37 38 39 40 41 42 43 44 45 46 47 48 49 50
000
ASUS43 KIND 051059
RWRIN

WEATHER ROUNDUP FOR INDIANA
NATIONAL WEATHER SERVICE INDIANAPOLIS IN
600 AM EST THU MAR 05 2015

NOTE: "FAIR" INDICATES FEW OR NO CLOUDS BELOW 12,000 FEET WITH NO
SIGNIFICANT WEATHER AND/OR OBSTRUCTIONS TO VISIBILITY.

* - STATION DOES NOT REPORT WEATHER SUCH AS PRECIPITATION OR FOG.

+ - STATION NOT QUALITY CONTROLLED BY THE NATIONAL WEATHER SERVICE.
    USE DATA WITH CAUTION...ESPECIALLY DEWPOINT AND RELATIVE
    HUMIDITY OBSERVATIONS.

INZ001>003-010>013-019-020-051200-
NORTHWEST INDIANA

CITY           SKY/WX    TMP DP  RH WIND       PRES   REMARKS
GARY /AIRPORT/ CLOUDY    18   1  49 NW9       30.37R WCI   6
VALPARAISO     NOT AVBL

$$

LMZ046-743>745-051200-
SOUTHERN LAKE MICHIGAN

STATION/POSITION TIME  TEMP WIND        PRES
                       AIR  DIR/SP/G
                 (UTC) (F)  (DEG/KT/KT) (MB)
MICHIGAN CITY    1000   16  330/ 12/ 15   N/A

$$

INZ004-005-014>016-021>024-051200-
NORTH CENTRAL INDIANA

CITY           SKY/WX    TMP DP  RH WIND       PRES   REMARKS
GOSHEN         MOCLDY     9  -1  64 CALM      30.31S
SOUTH BEND     CLOUDY    13   6  74 CALM      30.33F

$$

INZ006>009-017-018-025>027-051200-
NORTHEAST INDIANA

CITY           SKY/WX    TMP DP  RH WIND       PRES   REMARKS
ANGOLA *+      CLEAR      3  -4  72 CALM      30.30R
FORT WAYNE     MOCLDY    14   2  58 N5        30.33R WCI   6

$$

INZ028-029-035-036-043>045-051>053-051200-
WEST CENTRAL INDIANA

CITY           SKY/WX    TMP DP  RH WIND       PRES   REMARKS
CRAWFORDSVL +  MOCLDY    11  -2  54 NW6       30.34R WCI   2
GREENCASTLE +  CLOUDY    14   1  57 NW7       30.33S WCI   4
LAFAYETTE      PTCLDY     8   0  69 NW5       30.35S WCI   0
TERRE HAUTE    CLOUDY    15   4  61 NW8       30.40R WCI   4

$$

INZ030>032-037>040-046>048-054>057-064-065-051200-
CENTRAL INDIANA

CITY           SKY/WX    TMP DP  RH WIND       PRES   REMARKS
GREENWOOD *+   CLOUDY    18   3  53 N9        30.30F WCI   6
INDIANAPOLIS   CLOUDY    17   6  62 N9        30.30F WCI   6
-EAGLE CREEK   MOCLDY    15   6  67 N8        30.30S WCI   4
KOKOMO *+        N/A    N/A N/A N/A MISG        N/A
MT COMFORT *+  CLOUDY    18   3  53 N10       30.28F WCI   6
SHELBYVILLE    CLOUDY    20   9  62 N13       30.28F WCI   7

$$

INZ033-034-041-042-049-050-058-059-051200-
EAST CENTRAL INDIANA

CITY           SKY/WX    TMP DP  RH WIND       PRES   REMARKS
MUNCIE         CLOUDY    17   7  64 NE7       30.28S WCI   8

$$

INZ060-061-067>069-081>083-085>088-051200-
SOUTHWEST INDIANA

CITY           SKY/WX    TMP DP  RH WIND       PRES   REMARKS
EVANSVILLE     CLOUDY    20   6  55 N12       30.37R WCI   8
HUNTINGBURG *+ MOCLDY    18   7  62 N12       30.33R WCI   5

$$

INZ062-063-066-070>080-084-089>092-051200-
SOUTH CENTRAL AND SOUTHEAST INDIANA

CITY           SKY/WX    TMP DP  RH WIND       PRES   REMARKS
BLOOMINGTON    MOCLDY    17   5  59 N9        30.34R WCI   6
SEYMOUR +      CLOUDY    23  10  58 N10       30.32R WCI  12

$$




USA.gov is the U.S. government's official web portal to all federal, state and local government web resources and services.